Lincoln, NE

12:40 PM CST on November 13, 2019 (GMT -0600)
Lincoln Municipal

Weather History for KLNK - October, 2019

Change the Weather History Date:

Tuesday, October 22, 2019

  Actual Average Record
Temperature  
Mean Temperature 51 °F 51 °F  
Max Temperature 61 °F 63 °F 89 °F (1899)
Min Temperature 41 °F 39 °F 19 °F (1976)
Degree Days  
Heating Degree Days 14 14  
Month to date heating degree days 258 233  
Since 1 July heating degree days 266 331  
Cooling Degree Days 0 0  
Month to date cooling degree days 1 12  
Year to date cooling degree days 1332 1170  
Growing Degree Days 1 (Base 50)    
Moisture  
Dew Point 29 °F    
Average Humidity 50    
Maximum Humidity 70    
Minimum Humidity 30    
Precipitation  
Precipitation 0.00 in 0.06 in 2.01 in (2008)
Month to date precipitation 4.62 1.48  
Year to date precipitation 32.68 26.08  
Snow  
Snow 0.00 in 0.00 in 1.00 in (1996)
Month to date snowfall 0.0 0.3  
Since 1 July snowfall 0.0 0.3  
Since 1 September snowfall 0.0 0.3  
Snow Depth 0.00 in    
Sea Level Pressure  
Sea Level Pressure 29.94 in    
Wind  
Wind Speed 13 mph (WNW)    
Max Wind Speed 25 mph    
Max Gust Speed 35 mph    
Visibility 10 miles    
Events      
T = Trace of Precipitation, MM = Missing Value Source: NWS Daily Summary

Daily Weather History Graph

Daily Weather History Graph

Search for Another Location

Airport or City:

Astronomy

Oct. 22, 2019 Rise Set
Actual Time 7:45 AM CDT 6:36 PM CDT
Civil Twilight 7:17 AM CDT 7:04 PM CDT
Nautical Twilight 6:45 AM CDT 7:36 PM CDT
Astronomical Twilight 6:14 AM CDT 8:08 PM CDT
Moon 12:53 AM CDT (10/22) 3:49 PM CDT (10/22)
Length of Visible Light 11h 46m
Length of Day
10h 50m
Last Quarter, 37% of the Moon is Illuminated
Oct 22
Last Quarter
Oct 27
New
Nov 4
First Quarter
Nov 12
Full
Nov 19
Last Quarter

Hourly Weather History & Observations

Time (CDT) Temp. Windchill Dew Point Humidity Pressure Visibility Wind Dir Wind Speed Gust Speed Precip Events Conditions
12:54 AM 46.0 °F 38.8 °F 30.0 °F 54% 29.86 in 10.0 mi NW 18.4 mph 32.2 mph N/A   Clear
1:54 AM 45.0 °F 37.1 °F 28.9 °F 53% 29.88 in 10.0 mi WNW 19.6 mph 27.6 mph N/A   Clear
2:54 AM 44.1 °F 36.8 °F 28.9 °F 55% 29.89 in 10.0 mi WNW 16.1 mph 24.2 mph N/A   Clear
3:54 AM 42.1 °F 35.2 °F 30.0 °F 62% 29.90 in 10.0 mi West 12.7 mph - N/A   Clear
4:54 AM 42.1 °F 32.6 °F 28.9 °F 60% 29.90 in 10.0 mi WNW 23.0 mph 34.5 mph N/A   Clear
5:54 AM 42.1 °F 32.8 °F 28.9 °F 60% 29.93 in 10.0 mi WNW 21.9 mph 29.9 mph N/A   Clear
6:54 AM 41.0 °F 32.8 °F 28.9 °F 62% 29.95 in 10.0 mi WNW 16.1 mph 28.8 mph N/A   Clear
7:54 AM 41.0 °F 32.8 °F 28.0 °F 60% 29.96 in 10.0 mi West 16.1 mph - N/A   Clear
8:54 AM 43.0 °F 35.1 °F 28.0 °F 56% 29.99 in 10.0 mi WNW 17.3 mph - N/A   Clear
9:54 AM 46.0 °F 38.5 °F 27.0 °F 47% 30.01 in 10.0 mi WNW 19.6 mph 31.1 mph N/A   Clear
10:54 AM 48.9 °F - 26.1 °F 41% 30.02 in 10.0 mi WNW 18.4 mph 28.8 mph N/A   Clear
11:54 AM 53.1 °F - 25.0 °F 34% 30.03 in 10.0 mi WNW 18.4 mph 27.6 mph N/A   Clear
12:54 PM 55.0 °F - 24.1 °F 30% 30.01 in 10.0 mi WNW 20.7 mph 31.1 mph N/A   Clear
1:54 PM 57.0 °F - 26.1 °F 30% 29.98 in 10.0 mi West 15.0 mph 26.5 mph N/A   Partly Cloudy
2:54 PM 57.0 °F - 28.0 °F 33% 29.96 in 10.0 mi West 19.6 mph 27.6 mph N/A   Scattered Clouds
3:54 PM 59.0 °F - 28.0 °F 31% 29.94 in 10.0 mi WNW 16.1 mph 29.9 mph N/A   Scattered Clouds
4:54 PM 59.0 °F - 28.9 °F 32% 29.92 in 10.0 mi West 15.0 mph 25.3 mph N/A   Mostly Cloudy
5:54 PM 59.0 °F - 28.9 °F 32% 29.92 in 10.0 mi WNW 6.9 mph - N/A   Partly Cloudy
6:54 PM 55.9 °F - 28.9 °F 36% 29.92 in 10.0 mi WSW 5.8 mph - N/A   Clear
7:54 PM 48.0 °F - 32.0 °F 54% 29.92 in 10.0 mi SW 3.5 mph - N/A   Clear
8:54 PM 46.0 °F - 30.9 °F 56% 29.91 in 10.0 mi Calm Calm - N/A   Clear
9:54 PM 45.0 °F - 30.0 °F 56% 29.91 in 10.0 mi Calm Calm - N/A   Clear
10:54 PM 43.0 °F 40.3 °F 30.9 °F 62% 29.91 in 10.0 mi SSE 4.6 mph - N/A   Mostly Cloudy
11:54 PM 43.0 °F - 33.1 °F 68% 29.89 in 10.0 mi Calm Calm - N/A   Clear